| time (UTC) | temp F | wind direction | speed knots | gust knots | rain 1hr in | rain 24hr in | rain mn in | humidity % | barometer mb |
| 20260507213031 | 73 | 257 | 1.7 | 6.1 | 0.00 | 2.99 | 2.92 | 78 | 1010.4 |
| 20260507211531 | 74 | 132 | 0.0 | 3.5 | 0.00 | 2.99 | 2.92 | 79 | 1010.2 |
| 20260507210030 | 74 | 75 | 0.0 | 9.6 | 0.00 | 2.99 | 2.92 | 79 | 1010.1 |
| 20260507204530 | 74 | 257 | 0.9 | 6.1 | 0.00 | 2.99 | 2.92 | 79 | 1010.1 |
| 20260507203032 | 74 | 248 | 2.6 | 7.8 | 0.00 | 2.99 | 2.92 | 80 | 1010.0 |
| 20260507201536 | 73 | 283 | 0.9 | 3.5 | 0.00 | 2.99 | 2.92 | 81 | 1010.0 |
| 20260507200027 | 74 | 98 | 1.7 | 4.3 | 0.00 | 2.99 | 2.92 | 81 | 1010.1 |
| 20260507194527 | 74 | 313 | 3.5 | 9.6 | 0.00 | 2.99 | 2.92 | 80 | 1010.1 |
| 20260507193030 | 74 | 252 | 4.3 | 12.2 | 0.00 | 2.99 | 2.92 | 81 | 1009.9 |
| 20260507191529 | 74 | 263 | 4.3 | 12.2 | 0.00 | 2.99 | 2.92 | 80 | 1010.0 |
| 20260507190026 | 74 | 239 | 3.5 | 7.8 | 0.00 | 2.99 | 2.92 | 79 | 1010.2 |
| 20260507184522 | 74 | 226 | 2.6 | 7.0 | 0.00 | 2.99 | 2.92 | 82 | 1009.9 |
| 20260507183033 | 74 | 212 | 3.5 | 6.1 | 0.00 | 2.99 | 2.92 | 83 | 1010.0 |
| 20260507181515 | 73 | 216 | 0.9 | 4.3 | 0.00 | 2.99 | 2.92 | 87 | 1010.1 |
| 20260507180016 | 72 | 243 | 0.9 | 3.5 | 0.00 | 2.99 | 2.92 | 87 | 1010.1 |
| 20260507174512 | 72 | 209 | 1.7 | 9.6 | 0.00 | 2.99 | 2.92 | 87 | 1010.1 |
| 20260507173008 | 71 | 238 | 1.7 | 6.1 | 0.00 | 2.99 | 2.92 | 92 | 1010.2 |
| 20260507171503 | 70 | 281 | 2.6 | 7.0 | 0.00 | 2.99 | 2.92 | 95 | 1010.6 |
| 20260507170004 | 69 | 313 | 0.9 | 5.2 | 0.00 | 2.99 | 2.92 | 97 | 1010.6 |
| 20260507164505 | 68 | 260 | 0.0 | 2.6 | 0.07 | 2.99 | 2.92 | 99 | 1010.6 |
| 20260507163002 | 67 | 244 | 2.6 | 4.3 | 0.15 | 2.99 | 2.92 | 98 | 1010.7 |
| 20260507161501 | 67 | 251 | 1.7 | 3.5 | 0.16 | 2.99 | 2.92 | 99 | 1010.5 |
| 20260507160003 | 67 | 235 | 1.7 | 5.2 | 0.17 | 2.99 | 2.92 | 99 | 1010.7 |
| 20260507154600 | 67 | 215 | 0.0 | 0.0 | 0.11 | 2.92 | 2.85 | 99 | 1010.4 |
| 20260507153059 | 67 | 90 | 0.9 | 1.7 | 0.05 | 2.84 | 2.77 | 99 | 1010.3 |
| 20260507151604 | 67 | 86 | 0.0 | 3.5 | 0.06 | 2.83 | 2.76 | 100 | 1009.9 |
| 20260507150059 | 67 | 101 | 0.0 | 1.7 | 0.06 | 2.82 | 2.75 | 99 | 1010.2 |
| 20260507144603 | 67 | 110 | 0.0 | 1.7 | 0.06 | 2.81 | 2.74 | 99 | 1010.1 |
| 20260507143109 | 67 | 122 | 0.0 | 3.5 | 0.14 | 2.79 | 2.72 | 99 | 1010.2 |
| 20260507141618 | 68 | 146 | 0.0 | 2.6 | 0.30 | 2.77 | 2.70 | 99 | 1009.8 |
| 20260507140056 | 68 | 236 | 0.0 | 1.7 | 0.65 | 2.76 | 2.69 | 100 | 1009.2 |
| 20260507134556 | 68 | 250 | 0.0 | 3.5 | 0.83 | 2.75 | 2.68 | 99 | 1009.5 |
| 20260507133103 | 68 | 248 | 1.7 | 11.3 | 0.97 | 2.63 | 2.56 | 99 | 1009.6 |
| 20260507131610 | 67 | 244 | 4.3 | 10.4 | 1.18 | 2.46 | 2.39 | 99 | 1009.2 |
| 20260507130053 | 67 | 227 | 1.7 | 4.3 | 1.00 | 2.11 | 2.04 | 99 | 1009.0 |
| 20260507124553 | 67 | 248 | 1.7 | 4.3 | 1.22 | 1.89 | 1.82 | 99 | 1009.0 |
| 20260507123109 | 67 | 239 | 1.7 | 4.3 | 1.12 | 1.65 | 1.58 | 99 | 1009.1 |
| 20260507121551 | 68 | 282 | 0.0 | 5.2 | 0.76 | 1.28 | 1.21 | 98 | 1009.7 |
| 20260507120050 | 68 | 269 | 5.2 | 9.6 | 0.56 | 1.09 | 1.02 | 98 | 1009.0 |
| 20260507114553 | 67 | 237 | 3.5 | 13.0 | 0.13 | 0.65 | 0.57 | 98 | 1009.0 |
| 20260507113047 | 67 | 245 | 0.9 | 6.1 | 0.00 | 0.52 | 0.45 | 98 | 1008.2 |
| 20260507111547 | 67 | 250 | 4.3 | 9.6 | 0.00 | 0.52 | 0.45 | 98 | 1008.3 |
| 20260507110050 | 67 | 252 | 2.6 | 9.6 | 0.01 | 0.52 | 0.45 | 98 | 1008.8 |
| 20260507104646 | 67 | 260 | 3.5 | 8.7 | 0.04 | 0.52 | 0.45 | 98 | 1008.6 |
| 20260507103044 | 67 | 115 | 0.9 | 4.3 | 0.11 | 0.52 | 0.45 | 98 | 1008.2 |
| 20260507101543 | 67 | 258 | 1.7 | 8.7 | 0.14 | 0.52 | 0.45 | 98 | 1008.3 |
| 20260507100053 | 67 | 195 | 2.6 | 9.6 | 0.14 | 0.51 | 0.44 | 98 | 1006.6 |
| 20260507094539 | 67 | 244 | 2.6 | 7.0 | 0.10 | 0.47 | 0.40 | 98 | 1009.0 |
| 20260507093037 | 67 | 245 | 2.6 | 7.8 | 0.03 | 0.40 | 0.33 | 98 | 1010.8 |
| 20260507091540 | 67 | 285 | 3.5 | 6.1 | 0.01 | 0.38 | 0.31 | 98 | 1009.8 |
| 20260507090040 | 67 | 207 | 0.9 | 5.2 | 0.00 | 0.37 | 0.30 | 98 | 1009.9 |
| 20260507084543 | 67 | 211 | 1.7 | 4.3 | 0.00 | 0.37 | 0.30 | 98 | 1010.0 |
| 20260507083035 | 67 | 204 | 2.6 | 4.3 | 0.00 | 0.37 | 0.30 | 98 | 1010.0 |
| 20260507081534 | 67 | 248 | 0.9 | 3.5 | 0.01 | 0.37 | 0.30 | 98 | 1009.8 |
| 20260507080033 | 67 | 288 | 0.0 | 6.1 | 0.05 | 0.37 | 0.30 | 97 | 1009.9 |
| 20260507074534 | 67 | 237 | 1.7 | 7.0 | 0.05 | 0.37 | 0.30 | 97 | 1009.9 |
| 20260507073032 | 67 | 229 | 0.0 | 4.3 | 0.07 | 0.37 | 0.30 | 97 | 1009.6 |
| 20260507071534 | 67 | 252 | 1.7 | 6.1 | 0.08 | 0.36 | 0.28 | 97 | 1009.1 |
| 20260507070032 | 67 | 241 | 4.3 | 9.6 | 0.07 | 0.32 | 0.25 | 97 | 1010.1 |
| 20260507064539 | 67 | 158 | 1.7 | 4.3 | 0.13 | 0.32 | 0.25 | 96 | 1009.3 |
| 20260507063024 | 68 | 250 | 1.7 | 7.8 | 0.17 | 0.30 | 0.23 | 96 | 1010.2 |
| 20260507061522 | 68 | 264 | 4.3 | 12.2 | 0.17 | 0.27 | 0.20 | 96 | 1010.5 |
| 20260507060019 | 68 | 277 | 2.6 | 8.7 | 0.17 | 0.25 | 0.18 | 95 | 1010.3 |
| 20260507054516 | 68 | 240 | 4.3 | 10.4 | 0.11 | 0.19 | 0.12 | 94 | 1011.2 |
| 20260507053013 | 69 | 228 | 3.5 | 10.4 | 0.06 | 0.13 | 0.06 | 94 | 1011.6 |
| 20260507051510 | 69 | 268 | 6.1 | 10.4 | 0.03 | 0.10 | 0.03 | 93 | 1011.7 |
| 20260507050019 | 70 | 247 | 4.3 | 8.7 | 0.01 | 0.08 | 0.01 | 93 | 1011.8 |
| 20260507044506 | 69 | 211 | 0.9 | 6.1 | 0.01 | 0.08 | 0.01 | 93 | 1011.1 |
| 20260507043004 | 70 | 252 | 0.0 | 8.7 | 0.02 | 0.07 | 0.00 | 93 | 1011.7 |
| 20260507041501 | 70 | 224 | 2.6 | 7.8 | 0.03 | 0.07 | 0.00 | 93 | 1010.9 |
| 20260507040059 | 70 | 271 | 0.9 | 4.3 | 0.05 | 0.07 | 0.00 | 93 | 1010.5 |
| 20260507034557 | 70 | 293 | 0.0 | 2.6 | 0.06 | 0.07 | 0.07 | 92 | 1011.3 |
| 20260507033056 | 71 | 224 | 2.6 | 9.6 | 0.04 | 0.05 | 0.05 | 90 | 1011.2 |
| 20260507031555 | 72 | 247 | 4.3 | 12.2 | 0.04 | 0.04 | 0.04 | 88 | 1011.5 |
| 20260507030055 | 72 | 251 | 4.3 | 9.6 | 0.01 | 0.01 | 0.01 | 87 | 1011.7 |
| 20260507024553 | 73 | 151 | 0.0 | 0.0 | 0.01 | 0.01 | 0.01 | 87 | 1011.8 |
| 20260507023052 | 74 | 144 | 0.0 | 6.1 | 0.01 | 0.01 | 0.01 | 83 | 1011.2 |
| 20260507021552 | 75 | 172 | 0.0 | 1.7 | 0.00 | 0.00 | 0.00 | 81 | 1011.3 |
| 20260507014558 | 77 | 258 | 1.7 | 5.2 | 0.00 | 0.00 | 0.00 | 77 | 1011.0 |
| 20260507013050 | 77 | 252 | 1.7 | 4.3 | 0.00 | 0.00 | 0.00 | 79 | 1011.5 |
| 20260507011550 | 77 | 269 | 1.7 | 5.2 | 0.00 | 0.00 | 0.00 | 76 | 1011.0 |
| 20260507010059 | 78 | 266 | 1.7 | 4.3 | 0.00 | 0.00 | 0.00 | 77 | 1011.4 |
| 20260507004548 | 78 | 249 | 1.7 | 6.1 | 0.00 | 0.00 | 0.00 | 76 | 1011.2 |
| 20260507003048 | 78 | 228 | 0.9 | 4.3 | 0.00 | 0.00 | 0.00 | 75 | 1011.4 |
| 20260507001554 | 78 | 262 | 3.5 | 7.0 | 0.00 | 0.00 | 0.00 | 74 | 1011.4 |
| 20260507000046 | 79 | 236 | 2.6 | 7.8 | 0.00 | 0.00 | 0.00 | 74 | 1010.7 |
| 20260506234544 | 79 | 195 | 4.3 | 8.7 | 0.00 | 0.00 | 0.00 | 75 | 1010.8 |
| 20260506233044 | 79 | 245 | 0.9 | 6.1 | 0.00 | 0.00 | 0.00 | 72 | 1010.3 |
| 20260506231602 | 80 | 236 | 0.9 | 6.1 | 0.00 | 0.00 | 0.00 | 71 | 1010.2 |
| 20260506230100 | 80 | 240 | 5.2 | 10.4 | 0.00 | 0.00 | 0.00 | 70 | 1011.1 |
| 20260506224541 | 80 | 280 | 3.5 | 8.7 | 0.00 | 0.00 | 0.00 | 71 | 1011.2 |
| 20260506223039 | 81 | 240 | 2.6 | 8.7 | 0.00 | 0.00 | 0.00 | 70 | 1010.9 |
| 20260506221541 | 81 | 226 | 4.3 | 10.4 | 0.00 | 0.00 | 0.00 | 70 | 1010.5 |
| 20260506220040 | 80 | 245 | 5.2 | 9.6 | 0.00 | 0.00 | 0.00 | 71 | 1010.9 |
| 20260506214537 | 81 | 251 | 5.2 | 10.4 | 0.00 | 0.00 | 0.00 | 68 | 1010.8 |